{"data":{"norad_id":60344,"epoch":"2026-05-25T02:11:09.197952Z","epoch_age_seconds":64020,"freshness":"FRESH","line1":"1 60344U 24136R   26145.09107868 -.00000245  00000+0  38571-5 0  9990","line2":"2 60344  53.1611  80.6672 0001157  79.1041 281.0090 15.30196067101360","mean_motion":15.30196067,"eccentricity":0.0001157,"inclination_deg":53.1611,"raan_deg":80.6672,"arg_perigee_deg":79.1041,"mean_anomaly_deg":281.009,"bstar":3.8571e-6,"rev_number":10136,"period_min":94.105587581542,"perigee_km":474.43387848042,"apogee_km":476.01974686668,"semimajor_km":6853.3638126735,"source":"CELESTRAK","updated_at":"2026-05-25T13:38:19.235653Z"}}